"startDT [UTC]","vpos","CH4 [ppm]","stdev(CH4) [ppm]","CO2 [ppm]","stdev(CO2) [ppm]","H2O [ppm]","stdev(H2O)","p_LGR [torr]","T_LGR [C]","mt1_LGR [us]","mt2_LGR [us]","T_ECpre [C]","T_EC1 [C]","T_EC2 [C]","p_inlet [hPa]","p_in [hPa]","p_out [hPa]","T_inlet [C]","RH_inlet [%]","dwpt_inlet [C]","T_vent [C]","RH_vent [%]","dwpt_vent [C]","flow_vent [l min-1]","flow_inlet [l min-1]","dwpt_sample [C]","T_room [C]"
2013-06-03 00:00:00,0.0,1.8983,0.0009,408.26,0.30,83.7,30.9,138.20,23.79,24.62,36.35,0.04,-272.76,-272.76,-35,547,-926,17.6,20.6,-5.2,17.9,21.0,-4.7,5.73,2.43,-26.1,23.6
2013-06-03 00:01:00,0.0,1.8981,0.0008,408.38,0.30,88.5,40.9,138.20,23.78,24.62,36.35,0.04,-272.76,-272.76,-35,547,-926,17.6,20.5,-5.3,17.9,20.9,-4.8,5.73,2.42,-26.1,23.6
2013-06-03 00:02:00,0.0,1.8984,0.0009,408.27,0.30,80.3,36.3,138.20,23.78,24.61,36.35,0.04,-272.76,-272.76,-35,547,-926,17.6,20.5,-5.3,17.9,20.9,-4.8,5.73,2.43,-26.1,23.6
2013-06-03 00:03:00,0.0,1.8984,0.0009,408.36,0.28,79.8,35.6,138.20,23.78,24.61,36.35,0.04,-272.76,-272.76,-35,547,-926,17.6,20.6,-5.2,17.9,20.9,-4.8,5.73,2.43,-26.1,23.6
2013-06-03 00:04:00,0.0,1.8980,0.0008,408.20,0.26,87.8,40.0,138.20,23.78,24.62,36.35,0.04,-272.76,-272.76,-35,547,-926,17.6,20.7,-5.1,17.9,21.1,-4.7,5.73,2.42,-26.1,23.6
2013-06-03 00:05:00,0.0,1.8981,0.0008,408.22,0.29,84.7,39.7,138.20,23.78,24.62,36.36,0.04,-272.76,-272.76,-35,547,-926,17.6,20.8,-5.1,18.0,21.1,-4.6,5.73,2.43,-26.1,23.5
2013-06-03 00:06:00,0.0,1.8986,0.0010,408.25,0.30,99.6,39.0,138.20,23.78,24.62,36.35,0.04,-272.76,-272.76,-35,547,-926,17.7,20.6,-5.2,18.0,21.0,-4.7,5.73,2.43,-26.1,23.5
2013-06-03 00:07:00,0.0,1.8986,0.0009,408.20,0.33,94.2,36.9,138.20,23.78,24.61,36.36,0.04,-272.76,-272.76,-35,547,-926,17.7,20.6,-5.2,18.0,21.0,-4.7,5.73,2.43,-26.1,23.5
2013-06-03 00:08:00,0.0,1.8987,0.0010,408.23,0.25,93.9,37.0,138.20,23.78,24.62,36.36,0.04,-272.77,-272.76,-35,547,-926,17.7,20.7,-5.1,18.0,21.1,-4.6,5.73,2.43,-26.1,23.5
2013-06-03 00:09:00,0.0,1.8993,0.0009,408.30,0.32,89.4,39.4,138.20,23.78,24.61,36.35,0.04,-272.76,-272.76,-35,547,-926,17.7,20.6,-5.1,18.0,21.0,-4.7,5.73,2.43,-26.1,23.5
2013-06-03 00:10:00,0.0,1.8987,0.0009,408.27,0.26,100.3,36.9,138.20,23.78,24.62,36.34,0.04,-272.76,-272.76,-35,547,-926,17.7,20.7,-5.1,18.0,21.1,-4.6,5.73,2.43,-26.1,23.5
2013-06-03 00:11:00,0.0,1.8982,0.0010,408.28,0.23,90.5,35.9,138.20,23.78,24.62,36.36,0.04,-272.76,-272.76,-35,547,-926,17.7,20.6,-5.1,18.0,21.0,-4.6,5.73,2.43,-26.1,23.5
2013-06-03 00:12:00,0.0,1.8986,0.0008,408.27,0.27,96.6,39.2,138.20,23.78,24.61,36.35,0.04,-272.76,-272.76,-35,547,-926,17.7,20.6,-5.2,18.0,20.9,-4.7,5.73,2.43,-26.0,23.5
2013-06-03 00:13:00,0.0,1.8985,0.0009,408.31,0.29,98.4,43.9,138.20,23.78,24.62,36.35,0.04,-272.76,-272.76,-35,547,-926,17.7,20.6,-5.1,18.0,21.0,-4.7,5.73,2.43,-26.1,23.5
2013-06-03 00:14:00,0.0,1.8984,0.0008,408.29,0.24,91.5,38.9,138.20,23.78,24.62,36.35,0.04,-272.76,-272.76,-36,547,-926,17.7,20.8,-5.1,18.0,21.1,-4.6,5.73,2.43,-26.1,23.5
2013-06-03 00:15:00,0.0,1.8985,0.0008,408.24,0.27,88.9,42.2,138.20,23.78,24.62,36.36,0.04,-272.76,-272.76,-35,547,-926,17.7,20.5,-5.2,18.0,20.9,-4.7,5.73,2.43,-26.1,23.5
2013-06-03 00:16:00,0.0,1.8985,0.0009,408.28,0.31,92.7,41.5,138.20,23.78,24.62,36.35,0.04,-272.76,-272.76,-35,547,-926,17.7,20.2,-5.4,18.0,20.6,-4.9,5.73,2.43,-26.1,23.4
2013-06-03 00:17:00,0.0,1.8986,0.0007,408.19,0.31,95.2,34.6,138.20,23.78,24.62,36.36,0.04,-272.76,-272.76,-36,547,-926,17.7,20.2,-5.4,18.0,20.6,-4.9,5.73,2.42,-26.1,23.5
2013-06-03 00:18:00,0.0,1.8990,0.0010,408.26,0.29,97.7,40.6,138.20,23.78,24.62,36.35,0.04,-272.76,-272.76,-35,547,-926,17.7,20.2,-5.4,18.0,20.5,-5.0,5.73,2.43,-26.1,23.6
2013-06-03 00:19:00,0.0,1.8991,0.0010,408.27,0.25,95.3,36.6,138.20,23.78,24.62,36.36,0.04,-272.76,-272.76,-35,548,-926,17.7,20.2,-5.4,18.0,20.6,-4.9,5.73,2.43,-26.1,23.6
2013-06-03 00:20:00,0.0,1.8997,0.0008,408.18,0.28,94.5,39.8,138.20,23.79,24.61,36.36,0.04,-272.76,-272.76,-35,547,-926,17.7,20.3,-5.4,18.0,20.7,-4.9,5.73,2.43,-26.0,23.6
2013-06-03 00:21:00,0.0,1.8991,0.0008,408.30,0.34,106.2,40.4,138.20,23.79,24.62,36.35,0.04,-272.76,-272.76,-35,547,-926,17.6,20.5,-5.3,18.0,20.8,-4.8,5.73,2.43,-26.1,23.6
2013-06-03 00:22:00,0.0,1.8989,0.0010,408.29,0.31,104.3,40.7,138.20,23.79,24.61,36.35,0.04,-272.76,-272.76,-35,547,-926,17.6,20.7,-5.2,18.0,21.0,-4.7,5.73,2.43,-26.1,23.6
2013-06-03 00:23:00,0.0,1.8989,0.0007,408.30,0.24,99.1,42.5,138.20,23.78,24.62,36.35,0.04,-272.76,-272.76,-35,547,-926,17.6,20.7,-5.1,17.9,21.0,-4.7,5.73,2.43,-26.1,23.6
2013-06-03 00:24:00,0.0,1.8986,0.0010,408.26,0.27,89.7,42.1,138.20,23.78,24.62,36.35,0.04,-272.76,-272.76,-35,547,-926,17.6,20.9,-5.1,17.9,21.1,-4.6,5.73,2.42,-26.1,23.6
2013-06-03 00:25:00,0.0,1.8992,0.0009,408.31,0.35,97.2,38.3,138.20,23.78,24.61,36.35,0.04,-272.76,-272.76,-35,547,-926,17.6,21.0,-5.0,17.9,21.3,-4.5,5.73,2.43,-26.1,23.6
2013-06-03 00:26:00,0.0,1.8988,0.0010,408.25,0.33,92.9,35.9,138.20,23.78,24.62,36.35,0.04,-272.76,-272.76,-35,547,-926,17.6,21.0,-5.0,17.9,21.3,-4.5,5.73,2.43,-26.1,23.6
2013-06-03 00:27:00,0.0,1.8990,0.0011,408.12,0.25,92.8,39.8,138.20,23.79,24.62,36.36,0.04,-272.76,-272.76,-35,547,-926,17.6,21.1,-4.9,17.9,21.3,-4.5,5.73,2.42,-26.1,23.6
2013-06-03 00:28:00,0.0,1.8990,0.0010,408.22,0.28,104.5,33.3,138.20,23.79,24.62,36.36,0.04,-272.76,-272.76,-35,547,-926,17.6,20.9,-5.0,17.9,21.3,-4.5,5.73,2.43,-26.1,23.5
2013-06-03 00:29:00,0.0,1.8991,0.0009,408.22,0.29,88.0,39.9,138.20,23.79,24.62,36.36,0.04,-272.76,-272.76,-35,547,-926,17.6,20.7,-5.2,17.9,21.0,-4.7,5.73,2.43,-26.0,23.6
2013-06-03 00:30:00,0.0,1.8997,0.0008,408.25,0.27,95.8,40.6,138.20,23.79,24.61,36.35,0.04,-272.76,-272.76,-35,547,-926,17.6,20.7,-5.2,17.9,20.9,-4.8,5.73,2.43,-26.1,23.6
2013-06-03 00:31:00,0.0,1.9000,0.0009,408.38,0.26,97.6,39.1,138.20,23.79,24.61,36.35,0.04,-272.76,-272.77,-35,547,-926,17.6,20.9,-5.0,17.9,21.2,-4.6,5.73,2.43,-26.1,23.6
2013-06-03 00:32:00,0.0,1.8999,0.0009,408.19,0.28,100.6,36.8,138.20,23.79,24.61,36.36,0.04,-272.76,-272.76,-35,547,-926,17.6,21.0,-5.0,17.9,21.3,-4.6,5.73,2.43,-26.1,23.5
2013-06-03 00:33:00,0.0,1.8995,0.0010,408.14,0.25,98.2,39.6,138.20,23.79,24.61,36.36,0.04,-272.76,-272.76,-35,547,-926,17.6,21.0,-5.0,17.9,21.3,-4.6,5.73,2.43,-26.1,23.5
2013-06-03 00:34:00,0.0,1.8991,0.0009,408.31,0.26,106.8,40.5,138.20,23.80,24.62,36.35,0.04,-272.76,-272.76,-35,547,-926,17.6,21.0,-5.0,17.9,21.3,-4.5,5.73,2.43,-26.1,23.5
2013-06-03 00:35:00,0.0,1.8992,0.0009,408.25,0.30,103.2,32.2,138.20,23.79,24.61,36.35,0.04,-272.77,-272.76,-35,547,-926,17.6,21.0,-5.0,17.9,21.3,-4.5,5.73,2.43,-26.1,23.4
2013-06-03 00:36:00,0.0,1.8989,0.0010,408.29,0.27,84.8,41.0,138.20,23.79,24.61,36.35,0.04,-272.76,-272.76,-35,547,-926,17.6,21.0,-5.0,18.0,21.3,-4.5,5.73,2.43,-26.1,23.5
2013-06-03 00:37:00,0.0,1.8981,0.0010,408.27,0.25,87.7,37.1,138.20,23.78,24.62,36.35,0.04,-272.76,-272.76,-35,547,-926,17.6,20.9,-5.1,18.0,21.2,-4.6,5.73,2.43,-26.1,23.5
2013-06-03 00:38:00,0.0,1.8981,0.0010,408.27,0.28,91.7,45.0,138.20,23.77,24.62,36.35,0.04,-272.76,-272.77,-35,547,-926,17.6,21.0,-5.0,18.0,21.3,-4.5,5.73,2.43,-26.0,23.5
2013-06-03 00:39:00,0.0,1.8981,0.0009,408.26,0.25,96.0,47.6,138.20,23.77,24.62,36.35,0.04,-272.76,-272.76,-35,547,-926,17.6,21.0,-4.9,18.0,21.4,-4.5,5.73,2.43,-26.1,23.5
2013-06-03 00:40:00,0.0,1.8985,0.0009,408.23,0.34,89.2,43.1,138.20,23.77,24.62,36.35,0.04,-272.76,-272.76,-35,547,-926,17.6,21.1,-4.9,18.0,21.4,-4.4,5.73,2.43,-26.1,23.6
2013-06-03 00:41:00,0.0,1.8983,0.0009,408.28,0.28,97.1,36.8,138.20,23.78,24.62,36.35,0.04,-272.76,-272.76,-35,548,-926,17.6,21.2,-4.9,17.9,21.5,-4.4,5.73,2.43,-26.0,23.6
2013-06-03 00:42:00,0.0,1.8989,0.0008,408.20,0.29,95.0,37.3,138.20,23.78,24.61,36.35,0.04,-272.76,-272.77,-35,547,-926,17.6,21.3,-4.8,17.9,21.6,-4.4,5.73,2.42,-26.1,23.6
2013-06-03 00:43:00,0.0,1.8986,0.0009,408.21,0.25,107.7,40.6,138.20,23.78,24.61,36.36,0.04,-272.76,-272.76,-35,548,-926,17.6,21.4,-4.7,17.9,21.7,-4.3,5.73,2.43,-26.1,23.6
2013-06-03 00:44:00,0.0,1.8988,0.0009,408.22,0.25,99.2,39.3,138.20,23.78,24.61,36.35,0.04,-272.76,-272.76,-35,547,-926,17.6,21.4,-4.8,17.9,21.7,-4.3,5.73,2.41,-26.1,23.6
2013-06-03 00:45:00,0.0,1.8988,0.0009,408.17,0.32,102.2,41.2,138.20,23.78,24.62,36.36,0.04,-272.76,-272.77,-35,547,-926,17.6,21.3,-4.8,17.9,21.6,-4.3,5.73,2.43,-26.1,23.6
2013-06-03 00:46:00,0.0,1.8983,0.0009,408.27,0.24,105.0,35.9,138.20,23.78,24.62,36.35,0.04,-272.76,-272.76,-35,547,-926,17.6,21.3,-4.8,17.9,21.6,-4.3,5.73,2.43,-26.1,23.6
2013-06-03 00:47:00,0.0,1.8983,0.0010,408.20,0.28,95.3,36.4,138.20,23.78,24.61,36.36,0.04,-272.76,-272.76,-35,547,-926,17.6,21.0,-5.0,17.9,21.3,-4.5,5.73,2.43,-26.1,23.6
2013-06-03 00:48:00,0.0,1.8987,0.0008,408.25,0.26,98.9,34.2,138.20,23.78,24.61,36.35,0.04,-272.76,-272.76,-35,547,-926,17.6,20.7,-5.2,17.9,21.0,-4.7,5.73,2.42,-26.1,23.5
2013-06-03 00:49:00,0.0,1.8986,0.0009,408.25,0.29,92.7,32.6,138.20,23.79,24.61,36.36,0.04,-272.76,-272.76,-35,547,-926,17.6,20.5,-5.3,17.9,20.8,-4.8,5.73,2.43,-26.0,23.5
2013-06-03 00:50:00,0.0,1.8980,0.0010,408.25,0.24,87.2,36.9,138.20,23.78,24.61,36.35,0.04,-272.76,-272.76,-35,547,-926,17.6,20.3,-5.4,17.9,20.7,-4.9,5.73,2.43,-26.1,23.5
2013-06-03 00:51:00,0.0,1.8977,0.0007,408.28,0.29,95.0,39.6,138.20,23.78,24.62,36.35,0.04,-272.76,-272.76,-35,547,-926,17.6,20.3,-5.4,17.9,20.6,-4.9,5.73,2.42,-26.1,23.5
2013-06-03 00:52:00,0.0,1.8972,0.0009,408.14,0.31,86.2,42.1,138.20,23.78,24.62,36.36,0.04,-272.76,-272.76,-35,547,-926,17.7,20.3,-5.4,18.0,20.7,-4.9,5.73,2.43,-26.1,23.5
2013-06-03 00:53:00,0.0,1.8976,0.0010,408.23,0.25,87.0,31.7,138.20,23.77,24.61,36.36,0.04,-272.76,-272.75,-35,547,-926,17.6,20.5,-5.3,18.0,20.8,-4.8,5.73,2.43,-26.1,23.5
2013-06-03 00:54:00,0.0,1.8973,0.0009,408.19,0.29,86.8,42.1,138.20,23.77,24.61,36.35,0.04,-272.76,-272.76,-35,547,-926,17.7,20.3,-5.4,18.0,20.7,-4.9,5.73,2.43,-26.1,23.5
2013-06-03 00:55:00,0.0,1.8970,0.0009,408.11,0.25,90.0,42.7,138.20,23.77,24.62,36.36,0.04,-272.76,-272.76,-35,547,-926,17.7,20.2,-5.5,18.0,20.5,-5.0,5.73,2.43,-26.1,23.5
2013-06-03 00:56:00,0.0,1.8974,0.0009,408.07,0.27,101.2,35.6,138.20,23.77,24.62,36.36,0.04,-272.76,-272.76,-35,547,-926,17.7,20.0,-5.6,18.0,20.4,-5.1,5.73,2.43,-26.1,23.5
2013-06-03 00:57:00,0.0,1.8980,0.0009,408.21,0.30,92.3,40.6,138.20,23.77,24.61,36.35,0.04,-272.76,-272.76,-35,547,-926,17.7,19.8,-5.7,18.0,20.1,-5.2,5.73,2.43,-26.1,23.5
2013-06-03 00:58:00,0.0,1.8973,0.0007,408.24,0.31,90.5,38.4,138.20,23.77,24.62,36.35,0.04,-272.76,-272.76,-35,547,-926,17.7,19.9,-5.6,18.0,20.2,-5.2,5.73,2.43,-26.1,23.4
2013-06-03 00:59:00,0.0,1.8977,0.0009,408.13,0.28,92.8,40.8,138.20,23.77,24.61,36.35,0.04,-272.76,-272.76,-35,547,-926,17.7,19.8,-5.7,18.0,20.1,-5.2,5.73,2.43,-26.1,23.5
2013-06-03 01:00:00,0.0,1.8980,0.0010,408.14,0.30,105.6,34.3,138.20,23.77,24.62,36.36,0.04,-272.76,-272.76,-35,548,-926,17.7,19.9,-5.6,18.0,20.2,-5.2,5.73,2.43,-26.0,23.5
2013-06-03 01:01:00,0.0,1.8978,0.0010,408.16,0.33,84.2,33.9,138.20,23.77,24.62,36.35,0.04,-272.76,-272.76,-35,547,-926,17.7,19.8,-5.7,18.0,20.2,-5.2,5.73,2.43,-26.0,23.5
2013-06-03 01:02:00,0.0,1.8978,0.0009,408.29,0.26,100.3,38.9,138.20,23.77,24.61,36.34,0.04,-272.76,-272.76,-35,547,-926,17.7,19.7,-5.8,18.0,20.0,-5.3,5.73,2.42,-26.1,23.6
2013-06-03 01:03:00,0.0,1.8976,0.0010,408.30,0.26,87.3,32.5,138.20,23.77,24.61,36.34,0.04,-272.76,-272.76,-35,548,-926,17.7,19.9,-5.6,18.0,20.2,-5.2,5.73,2.42,-26.1,23.6
2013-06-03 01:04:00,0.0,1.8981,0.0009,408.21,0.25,91.2,39.1,138.20,23.77,24.61,36.36,0.04,-272.76,-272.76,-35,548,-926,17.7,20.1,-5.5,18.0,20.4,-5.0,5.73,2.43,-26.0,23.6
2013-06-03 01:05:00,0.0,1.8982,0.0008,408.27,0.29,97.3,36.2,138.21,23.77,24.61,36.35,0.04,-272.76,-272.76,-35,548,-926,17.7,20.2,-5.4,18.0,20.5,-5.0,5.73,2.43,-26.0,23.6
2013-06-03 01:06:00,0.0,1.8980,0.0009,408.12,0.26,100.0,38.5,138.20,23.77,24.62,36.36,0.04,-272.76,-272.76,-35,548,-926,17.7,20.3,-5.4,18.0,20.6,-4.9,5.73,2.43,-26.0,23.6
2013-06-03 01:07:00,0.0,1.8976,0.0008,408.22,0.27,96.1,37.1,138.20,23.77,24.61,36.35,0.04,-272.76,-272.76,-35,548,-926,17.7,20.2,-5.4,18.0,20.6,-4.9,5.73,2.43,-26.0,23.6
2013-06-03 01:08:00,0.0,1.8977,0.0010,408.08,0.30,86.5,35.6,138.20,23.77,24.61,36.36,0.04,-272.76,-272.76,-35,547,-926,17.7,20.1,-5.5,18.0,20.5,-5.0,5.73,2.43,-26.1,23.6
2013-06-03 01:09:00,0.0,1.8976,0.0009,408.16,0.25,85.4,34.6,138.20,23.77,24.61,36.36,0.04,-272.76,-272.76,-35,548,-926,17.7,20.1,-5.5,18.0,20.5,-5.0,5.73,2.42,-26.0,23.6
2013-06-03 01:10:00,0.0,1.8972,0.0011,408.08,0.29,84.1,42.3,138.20,23.76,24.62,36.36,0.04,-272.76,-272.76,-35,548,-926,17.7,20.2,-5.4,18.0,20.5,-4.9,5.73,2.42,-26.0,23.6
2013-06-03 01:11:00,0.0,1.8974,0.0010,408.23,0.28,78.8,35.3,138.20,23.76,24.61,36.35,0.04,-272.76,-272.76,-35,548,-926,17.7,20.2,-5.4,18.0,20.5,-4.9,5.73,2.43,-26.1,23.6
2013-06-03 01:12:00,0.0,1.8971,0.0008,408.16,0.27,86.5,40.9,138.20,23.76,24.62,36.35,0.04,-272.76,-272.76,-35,548,-926,17.7,20.1,-5.5,18.0,20.4,-5.0,5.73,2.42,-26.1,23.6
2013-06-03 01:13:00,0.0,1.8972,0.0010,408.10,0.32,82.6,38.6,138.20,23.76,24.62,36.35,0.04,-272.76,-272.76,-35,548,-926,17.7,20.1,-5.4,18.0,20.5,-5.0,5.73,2.43,-26.1,23.6
2013-06-03 01:14:00,0.0,1.8969,0.0010,408.20,0.27,81.6,35.4,138.20,23.75,24.62,36.35,0.04,-272.75,-272.76,-35,548,-926,17.7,20.3,-5.4,18.0,20.6,-4.9,5.73,2.43,-26.1,23.6
2013-06-03 01:15:00,0.0,1.8966,0.0009,408.09,0.26,71.6,37.3,138.20,23.75,24.62,36.35,0.04,-272.76,-272.76,-35,548,-926,17.7,20.2,-5.4,18.0,20.5,-5.0,5.73,2.43,-26.0,23.6
2013-06-03 01:16:00,0.0,1.8972,0.0009,408.14,0.34,78.1,37.7,138.20,23.75,24.61,36.35,0.04,-272.76,-272.76,-35,548,-926,17.7,20.0,-5.5,18.0,20.4,-5.1,5.73,2.43,-26.1,23.6
2013-06-03 01:17:00,0.0,1.8968,0.0008,408.13,0.30,81.5,35.2,138.20,23.75,24.62,36.35,0.04,-272.76,-272.76,-36,548,-926,17.7,20.0,-5.6,18.0,20.3,-5.1,5.73,2.42,-26.1,23.6
2013-06-03 01:18:00,0.0,1.8966,0.0009,408.08,0.26,73.7,38.3,138.20,23.75,24.62,36.36,0.04,-272.76,-272.76,-35,548,-926,17.7,20.1,-5.5,18.0,20.4,-5.0,5.73,2.43,-26.1,23.6
2013-06-03 01:19:00,0.0,1.8966,0.0009,408.11,0.30,80.8,34.7,138.20,23.75,24.62,36.36,0.04,-272.76,-272.76,-35,548,-926,17.7,20.2,-5.4,18.0,20.5,-5.0,5.73,2.43,-26.1,23.6
2013-06-03 01:20:00,0.0,1.8968,0.0010,408.10,0.29,77.2,39.7,138.20,23.75,24.62,36.36,0.04,-272.76,-272.76,-35,548,-926,17.7,20.3,-5.4,18.0,20.6,-4.9,5.73,2.43,-26.0,23.6
2013-06-03 01:21:00,0.0,1.8966,0.0009,408.15,0.25,76.8,43.4,138.20,23.75,24.62,36.35,0.04,-272.76,-272.76,-36,547,-926,17.7,20.3,-5.3,18.0,20.7,-4.9,5.73,2.43,-26.1,23.6
2013-06-03 01:22:00,0.0,1.8968,0.0010,408.09,0.29,83.0,41.2,138.20,23.75,24.61,36.36,0.04,-272.76,-272.76,-35,548,-926,17.7,20.2,-5.4,18.0,20.6,-4.9,5.73,2.43,-26.1,23.6
2013-06-03 01:23:00,0.0,1.8967,0.0010,408.10,0.25,82.7,39.4,138.20,23.74,24.61,36.35,0.04,-272.76,-272.76,-35,548,-926,17.7,20.1,-5.5,18.0,20.4,-5.0,5.73,2.42,-26.1,23.7
2013-06-03 01:24:00,0.0,1.8964,0.0011,408.17,0.32,70.7,35.8,138.20,23.74,24.62,36.35,0.04,-272.76,-272.76,-35,548,-926,17.6,20.0,-5.6,18.0,20.3,-5.1,5.73,2.43,-26.1,23.7
2013-06-03 01:25:00,0.0,1.8968,0.0010,408.15,0.33,84.3,41.9,138.20,23.74,24.61,36.35,0.04,-272.76,-272.76,-35,548,-926,17.6,20.2,-5.5,18.0,20.4,-5.0,5.73,2.43,-26.0,23.7
2013-06-03 01:26:00,0.0,1.8971,0.0008,408.13,0.30,100.6,43.0,138.20,23.74,24.62,36.36,0.04,-272.76,-272.76,-35,547,-926,17.6,20.3,-5.4,18.0,20.6,-5.0,5.73,2.43,-26.1,23.7
2013-06-03 01:27:00,0.0,1.8972,0.0009,408.11,0.29,94.0,39.5,138.20,23.75,24.62,36.35,0.04,-272.76,-272.75,-35,547,-926,17.6,20.1,-5.6,17.9,20.3,-5.1,5.73,2.42,-26.1,23.7
2013-06-03 01:28:00,0.0,1.8978,0.0008,408.05,0.24,91.4,39.0,138.20,23.75,24.61,36.36,0.04,-272.76,-272.76,-35,547,-926,17.6,19.7,-5.8,17.9,20.0,-5.4,5.73,2.42,-26.1,23.6
2013-06-03 01:29:00,0.0,1.8980,0.0009,408.06,0.32,98.9,34.6,138.20,23.75,24.61,36.36,0.04,-272.76,-272.76,-35,547,-926,17.6,19.7,-5.8,17.9,20.0,-5.4,5.73,2.43,-26.1,23.6
2013-06-03 01:30:00,0.0,1.8982,0.0010,408.25,0.25,95.9,35.3,138.20,23.76,24.61,36.35,0.04,-272.76,-272.76,-35,547,-926,17.6,19.7,-5.8,17.9,20.0,-5.4,5.73,2.43,-26.1,23.6
2013-06-03 01:31:00,0.0,1.8983,0.0010,408.11,0.29,107.5,37.2,138.20,23.76,24.61,36.35,0.04,-272.76,-272.76,-35,547,-926,17.6,19.8,-5.8,17.9,20.1,-5.3,5.73,2.42,-26.1,23.6
2013-06-03 01:32:00,0.0,1.8979,0.0009,408.24,0.29,105.6,35.5,138.20,23.76,24.62,36.35,0.04,-272.76,-272.76,-35,547,-926,17.6,20.1,-5.6,17.9,20.3,-5.2,5.73,2.42,-26.1,23.6
2013-06-03 01:33:00,0.0,1.8981,0.0008,408.19,0.24,108.2,33.8,138.20,23.77,24.62,36.36,0.04,-272.76,-272.76,-35,548,-926,17.6,20.0,-5.6,17.9,20.3,-5.2,5.73,2.43,-26.1,23.6
2013-06-03 01:34:00,0.0,1.8984,0.0008,408.15,0.30,100.0,42.6,138.20,23.77,24.61,36.35,0.04,-272.76,-272.76,-35,547,-926,17.6,20.0,-5.6,17.9,20.3,-5.2,5.73,2.43,-26.1,23.6
2013-06-03 01:35:00,0.0,1.8988,0.0008,408.25,0.23,104.5,38.4,138.20,23.77,24.61,36.35,0.04,-272.76,-272.76,-35,547,-926,17.6,20.0,-5.7,17.9,20.2,-5.2,5.73,2.43,-26.1,23.6
2013-06-03 01:36:00,0.0,1.8986,0.0010,408.18,0.27,101.7,40.5,138.20,23.78,24.62,36.35,0.04,-272.76,-272.76,-35,547,-926,17.6,20.2,-5.5,17.9,20.4,-5.1,5.73,2.43,-26.1,23.6
2013-06-03 01:37:00,0.0,1.8990,0.0010,408.17,0.29,95.5,45.9,138.20,23.78,24.61,36.36,0.04,-272.76,-272.76,-35,547,-926,17.6,20.3,-5.4,18.0,20.6,-5.0,5.73,2.43,-26.1,23.5
2013-06-03 01:38:00,0.0,1.8987,0.0010,408.37,0.28,108.9,40.3,138.20,23.78,24.62,36.35,0.04,-272.76,-272.76,-35,548,-926,17.6,20.0,-5.6,17.9,20.3,-5.1,5.73,2.43,-26.1,23.5
2013-06-03 01:39:00,0.0,1.8990,0.0013,408.22,0.35,98.6,35.7,138.20,23.78,24.61,36.35,0.04,-272.76,-272.76,-35,547,-926,17.6,19.8,-5.7,18.0,20.1,-5.2,5.73,2.42,-26.1,23.5
2013-06-03 01:40:00,0.0,1.8982,0.0009,408.17,0.32,109.0,32.4,138.20,23.78,24.62,36.35,0.04,-272.76,-272.76,-35,548,-926,17.6,19.8,-5.8,18.0,20.1,-5.3,5.73,2.42,-26.1,23.4
2013-06-03 01:41:00,0.0,1.8981,0.0010,408.11,0.31,95.0,40.8,138.20,23.77,24.61,36.35,0.04,-272.76,-272.76,-35,548,-926,17.7,19.8,-5.7,18.0,20.1,-5.2,5.73,2.42,-26.1,23.5
2013-06-03 01:42:00,0.0,1.8978,0.0010,408.29,0.26,87.4,39.9,138.20,23.77,24.62,36.35,0.04,-272.76,-272.76,-35,548,-926,17.7,20.0,-5.6,18.0,20.3,-5.1,5.73,2.42,-26.1,23.5
2013-06-03 01:43:00,0.0,1.8977,0.0010,408.13,0.31,92.9,40.4,138.20,23.77,24.61,36.35,0.04,-272.76,-272.76,-35,548,-926,17.7,20.1,-5.5,18.0,20.4,-5.1,5.73,2.43,-26.1,23.5
2013-06-03 01:44:00,0.0,1.8971,0.0007,408.26,0.26,82.1,38.3,138.20,23.76,24.62,36.35,0.04,-272.76,-272.76,-35,548,-926,17.7,20.3,-5.3,18.0,20.7,-4.9,5.73,2.43,-26.1,23.5
2013-06-03 01:45:00,0.0,1.8974,0.0008,408.17,0.33,83.9,39.3,138.20,23.76,24.62,36.36,0.04,-272.76,-272.76,-35,548,-926,17.7,20.1,-5.5,18.0,20.4,-5.1,5.73,2.43,-26.0,23.5
2013-06-03 01:46:00,0.0,1.8975,0.0010,408.08,0.32,87.7,37.5,138.20,23.76,24.61,36.36,0.04,-272.76,-272.76,-35,548,-926,17.7,20.1,-5.5,18.0,20.4,-5.0,5.73,2.42,-26.1,23.6
2013-06-03 01:47:00,0.0,1.8971,0.0009,408.20,0.24,80.3,39.7,138.20,23.75,24.62,36.35,0.04,-272.76,-272.76,-35,548,-926,17.7,20.1,-5.5,18.0,20.4,-5.0,5.73,2.43,-26.1,23.5
2013-06-03 01:48:00,0.0,1.8977,0.0010,408.17,0.29,90.0,44.3,138.20,23.75,24.61,36.35,0.04,-272.76,-272.76,-35,548,-926,17.7,20.1,-5.5,18.0,20.4,-5.1,5.73,2.42,-26.1,23.5
2013-06-03 01:49:00,0.0,1.8975,0.0010,408.28,0.32,89.5,40.3,138.21,23.76,24.62,36.34,0.04,-272.76,-272.76,-35,548,-926,17.7,20.2,-5.4,18.0,20.6,-4.9,5.73,2.43,-26.1,23.6
2013-06-03 01:50:00,0.0,1.8978,0.0010,408.17,0.26,90.5,40.3,138.20,23.76,24.61,36.35,0.04,-272.76,-272.76,-35,548,-926,17.7,20.2,-5.4,18.0,20.5,-5.0,5.73,2.43,-26.1,23.6
2013-06-03 01:51:00,0.0,1.8981,0.0011,408.19,0.31,97.4,41.1,138.20,23.76,24.62,36.35,0.04,-272.76,-272.76,-35,548,-926,17.7,20.3,-5.4,18.0,20.6,-4.9,5.73,2.44,-26.1,23.6
2013-06-03 01:52:00,0.0,1.8977,0.0009,408.17,0.25,100.1,42.2,138.20,23.76,24.62,36.35,0.04,-272.76,-272.76,-35,547,-926,17.6,20.4,-5.4,18.0,20.7,-4.9,5.73,2.43,-26.0,23.6
2013-06-03 01:53:00,0.0,1.8986,0.0010,408.12,0.26,92.9,46.6,138.20,23.77,24.61,36.36,0.04,-272.76,-272.76,-35,548,-925,17.6,20.3,-5.4,18.0,20.6,-5.0,5.73,2.43,-26.1,23.6
2013-06-03 01:54:00,0.0,1.8982,0.0010,408.13,0.26,98.4,43.0,138.20,23.77,24.62,36.35,0.04,-272.76,-272.76,-35,548,-926,17.7,20.2,-5.4,18.0,20.5,-5.0,5.73,2.43,-26.1,23.6
2013-06-03 01:55:00,0.0,1.8982,0.0010,408.15,0.23,90.0,39.2,138.21,23.77,24.61,36.35,0.04,-272.76,-272.76,-35,548,-926,17.6,20.3,-5.4,18.0,20.6,-4.9,5.73,2.43,-26.1,23.6
2013-06-03 01:56:00,0.0,1.8976,0.0008,408.09,0.31,95.8,38.5,138.20,23.77,24.62,36.37,0.04,-272.76,-272.76,-35,548,-926,17.6,20.2,-5.5,18.0,20.5,-5.0,5.73,2.43,-26.1,23.5
2013-06-03 01:57:00,0.0,1.8973,0.0009,408.14,0.29,96.6,32.3,138.20,23.76,24.62,36.36,0.04,-272.76,-272.76,-35,547,-926,17.6,20.1,-5.5,18.0,20.5,-5.0,5.73,2.43,-26.1,23.5
2013-06-03 01:58:00,0.0,1.8980,0.0010,408.19,0.29,94.7,36.1,138.20,23.76,24.62,36.35,0.23,-271.31,-271.11,-35,548,-926,17.6,20.1,-5.5,18.0,20.4,-5.0,5.42,2.43,-30.3,23.5
2013-06-03 01:59:00,0.0,1.8981,0.0008,408.21,0.27,105.5,37.9,138.20,23.77,24.61,36.35,0.04,-272.76,-272.76,-35,548,-926,17.7,20.1,-5.5,18.0,20.5,-5.0,5.73,2.43,-26.1,23.5
2013-06-03 02:00:00,0.0,1.8980,0.0010,408.23,0.32,103.5,44.0,138.20,23.77,24.62,36.35,0.04,-272.76,-272.76,-35,548,-926,17.7,20.0,-5.6,18.0,20.3,-5.1,5.73,2.43,-26.1,23.5
2013-06-03 02:01:00,0.0,1.8982,0.0009,408.22,0.29,113.0,38.7,138.20,23.77,24.62,36.35,0.04,-272.76,-272.75,-35,548,-926,17.7,20.0,-5.6,18.0,20.3,-5.1,5.73,2.42,-26.1,23.5
2013-06-03 02:02:00,0.0,1.8982,0.0009,408.20,0.28,95.8,30.4,138.20,23.77,24.62,36.35,0.04,-272.76,-272.76,-35,548,-926,17.7,20.0,-5.6,18.0,20.3,-5.1,5.73,2.43,-26.1,23.5
2013-06-03 02:03:00,0.0,1.8984,0.0009,408.08,0.29,95.1,39.2,138.20,23.77,24.61,36.36,0.04,-272.76,-272.77,-35,548,-926,17.7,20.0,-5.5,18.0,20.4,-5.1,5.73,2.43,-26.1,23.5
2013-06-03 02:04:00,0.0,1.8987,0.0010,408.14,0.28,100.5,42.6,138.20,23.77,24.61,36.35,0.04,-272.76,-272.76,-35,548,-926,17.7,20.0,-5.5,18.0,20.4,-5.0,5.73,2.43,-26.1,23.5
2013-06-03 02:05:00,0.0,1.8984,0.0008,408.15,0.27,93.0,36.0,138.20,23.77,24.61,36.35,0.04,-272.76,-272.76,-35,548,-926,17.7,20.1,-5.5,18.0,20.4,-5.0,5.73,2.42,-26.1,23.5
2013-06-03 02:06:00,0.0,1.8978,0.0008,408.23,0.26,95.6,38.3,138.20,23.77,24.62,36.35,0.04,-272.76,-272.76,-35,548,-926,17.7,20.2,-5.4,18.0,20.6,-4.9,5.73,2.43,-26.1,23.5
2013-06-03 02:07:00,0.0,1.8976,0.0010,408.24,0.27,79.0,35.4,138.20,23.77,24.62,36.35,0.04,-272.76,-272.76,-35,548,-926,17.7,20.4,-5.3,18.0,20.8,-4.8,5.73,2.43,-26.1,23.5
2013-06-03 02:08:00,0.0,1.8987,0.0011,408.21,0.29,98.8,41.7,138.20,23.77,24.61,36.35,0.04,-272.76,-272.76,-35,548,-925,17.7,20.5,-5.2,18.0,20.9,-4.7,5.73,2.43,-26.1,23.6
2013-06-03 02:09:00,0.0,1.8981,0.0010,408.20,0.29,89.5,42.6,138.20,23.77,24.62,36.35,0.04,-272.76,-272.76,-36,548,-926,17.7,20.2,-5.4,18.0,20.5,-4.9,5.73,2.42,-26.1,23.6
2013-06-03 02:10:00,0.0,1.8979,0.0009,408.17,0.26,101.0,44.1,138.20,23.77,24.62,36.35,0.04,-272.76,-272.76,-35,548,-926,17.7,20.1,-5.5,18.0,20.4,-5.0,5.73,2.43,-26.1,23.6
2013-06-03 02:11:00,0.0,1.8980,0.0008,408.13,0.26,86.6,37.6,138.20,23.76,24.61,36.36,0.04,-272.76,-272.76,-35,548,-926,17.7,20.1,-5.5,18.0,20.4,-5.0,5.73,2.43,-26.1,23.6
2013-06-03 02:12:00,0.0,1.8982,0.0006,408.21,0.30,105.4,36.9,138.20,23.77,24.61,36.35,0.04,-272.76,-272.76,-35,548,-926,17.7,20.2,-5.4,18.0,20.6,-4.9,5.73,2.43,-26.1,23.6
2013-06-03 02:13:00,0.0,1.8979,0.0009,408.24,0.36,96.3,42.1,138.20,23.77,24.62,36.35,0.04,-272.76,-272.76,-35,548,-926,17.7,20.4,-5.3,18.0,20.7,-4.8,5.73,2.43,-26.1,23.6
2013-06-03 02:14:00,0.0,1.8988,0.0010,408.21,0.30,92.3,38.9,138.20,23.77,24.61,36.35,0.04,-272.76,-272.76,-35,548,-926,17.7,20.6,-5.2,18.0,20.9,-4.7,5.73,2.43,-26.1,23.5
2013-06-03 02:15:00,0.0,1.8987,0.0008,408.16,0.29,94.5,39.1,138.20,23.77,24.61,36.36,0.04,-272.76,-272.76,-35,548,-926,17.7,20.5,-5.2,18.0,20.8,-4.8,5.73,2.42,-26.1,23.6
2013-06-03 02:16:00,0.0,1.8985,0.0008,408.22,0.28,104.1,39.9,138.20,23.77,24.61,36.35,0.04,-272.76,-272.76,-35,548,-926,17.7,20.3,-5.3,18.0,20.7,-4.8,5.73,2.43,-26.1,23.6
2013-06-03 02:17:00,0.0,1.8983,0.0009,408.16,0.33,84.4,32.8,138.20,23.77,24.61,36.35,0.04,-272.76,-272.76,-35,548,-926,17.7,20.1,-5.5,18.0,20.4,-5.0,5.73,2.42,-26.1,23.5